Oroville, CA

1:59 PM PDT on August 22, 2017 (GMT -0700)
Oroville Municipal

Weather History for KOVE - April, 2014

Change the Weather History Date:

Tuesday, April 15, 2014

  Actual Average Record
Temperature  
Mean Temperature 68 °F -  
Max Temperature 82 °F 72 °F 89 °F (1964)
Min Temperature 55 °F 45 °F 36 °F (1955)
Cooling Degree Days 4    
Growing Degree Days 18 (Base 50)    
Moisture  
Dew Point 47 °F    
Average Humidity 48    
Maximum Humidity 74    
Minimum Humidity 24    
Precipitation  
Precipitation 0.00 in - - ()
Sea Level Pressure  
Sea Level Pressure 29.95 in    
Wind  
Wind Speed 4 mph (NE)    
Max Wind Speed 7 mph    
Max Gust Speed -    
Visibility 10 miles    
Events      
Averages and records for this station are not official NWS values.
T = Trace of Precipitation, MM = Missing Value Source: NWS Daily Summary

Daily Weather History Graph

Daily Weather History Graph

Search for Another Location

Airport or City:

Trip Planner

Search our weather history database for the weather conditions in past years. The results will help you decide how hot, cold, wet, or windy it might be!

Date:

Astronomy

Apr. 15, 2014 Rise Set
Actual Time 6:29 AM PDT 7:44 PM PDT
Civil Twilight 6:01 AM PDT 8:12 PM PDT
Nautical Twilight 5:28 AM PDT 8:45 PM PDT
Astronomical Twilight 4:53 AM PDT 9:20 PM PDT
Moon 8:30 PM PDT (4/15) 6:40 AM PDT (4/15)
Length of Visible Light 14h 11m
Length of Day
13h 15m
Full, 100% of the Moon is Illuminated
Apr 15
Full
Apr 22
Last Quarter
Apr 28
New
May 6
First Quarter
May 14
Full

Hourly Weather History & Observations

Time (PDT) Temp. Dew Point Humidity Pressure Visibility Wind Dir Wind Speed Gust Speed Precip Events Conditions
12:53 AM 66.0 °F 46.0 °F 48% 30.01 in 10.0 mi East 6.9 mph - N/A   Clear
1:53 AM 63.0 °F 46.0 °F 54% 30.01 in 10.0 mi NE 4.6 mph - N/A   Clear
2:53 AM 63.0 °F 45.0 °F 52% 29.99 in 10.0 mi East 6.9 mph - N/A   Clear
3:53 AM 63.0 °F 45.0 °F 52% 29.99 in 10.0 mi ESE 4.6 mph - N/A   Clear
4:53 AM 55.9 °F 46.9 °F 72% 29.99 in 10.0 mi SSE 3.5 mph - N/A   Clear
5:53 AM 55.9 °F 46.9 °F 72% 30.00 in 10.0 mi Calm Calm - N/A   Clear
6:53 AM 55.0 °F 46.9 °F 74% 30.01 in 10.0 mi North 5.8 mph - N/A   Clear
7:53 AM 62.1 °F 48.9 °F 62% 30.01 in 10.0 mi Calm Calm - N/A   Clear
8:53 AM 64.9 °F 48.9 °F 56% 30.00 in 10.0 mi South 5.8 mph - N/A   Clear
9:53 AM 66.9 °F 51.1 °F 57% 30.01 in 10.0 mi Variable 3.5 mph - N/A   Clear
10:53 AM 71.1 °F 50.0 °F 47% 30.01 in 10.0 mi Calm Calm - N/A   Clear
11:53 AM 73.9 °F 51.1 °F 45% 30.00 in 10.0 mi Variable 3.5 mph - N/A   Clear
12:53 PM 77.0 °F 46.0 °F 33% 29.98 in 10.0 mi West 3.5 mph - N/A   Clear
1:53 PM 80.1 °F 41.0 °F 25% 29.96 in 10.0 mi Calm Calm - N/A   Clear
2:53 PM 80.1 °F 46.0 °F 30% 29.94 in 10.0 mi Variable 3.5 mph - N/A   Clear
3:53 PM 81.0 °F 46.9 °F 30% 29.91 in 10.0 mi West 3.5 mph - N/A   Clear
4:53 PM 82.0 °F 42.1 °F 24% 29.88 in 10.0 mi Calm Calm - N/A   Clear
5:53 PM 81.0 °F 44.1 °F 27% 29.86 in 10.0 mi Calm Calm - N/A   Clear
6:53 PM 80.1 °F 48.0 °F 32% 29.86 in 10.0 mi North 3.5 mph - N/A   Clear
7:53 PM 73.9 °F 51.1 °F 45% 29.86 in 10.0 mi NW 3.5 mph - N/A   Clear
8:53 PM 71.1 °F 51.1 °F 49% 29.88 in 10.0 mi Calm Calm - N/A   Clear
9:53 PM 64.9 °F 51.1 °F 61% 29.88 in 10.0 mi NNE 3.5 mph - N/A   Clear
10:53 PM 64.9 °F 50.0 °F 58% 29.87 in 10.0 mi NE 4.6 mph - N/A   Clear
11:53 PM 64.9 °F 48.9 °F 56% 29.88 in 10.0 mi ENE 3.5 mph - N/A   Clear